SAS27A ESNZ-ESSA

Flight info

Callsign SAS27A
Flight time 0h 39m
Altitude 31000
Route OSLAV DCT ELTOK
Aircraft A320/M-SDE3FGHIRWY/LB1

Departure

Time 2026-05-07 14:43
Airport Åre Östersund Airport (ESNZ)

Arrival

Time 2026-05-07 15:22
Airport Stockholm-Arlanda Airport (ESSA)
Time Latitude Longitude Altitude Speed Heading
2026-05-07 14:43 63.21244 14.37216 3538 ft 221 kts 244°
2026-05-07 14:43 63.20102 14.34790 3892 ft 250 kts 205°
2026-05-07 14:43 63.18334 14.33873 4634 ft 263 kts 187°
2026-05-07 14:44 63.16491 14.33676 5539 ft 268 kts 183°
2026-05-07 14:44 63.14619 14.33616 6518 ft 270 kts 184°
2026-05-07 14:44 63.12758 14.33806 7385 ft 276 kts 168°
2026-05-07 14:44 63.11014 14.35669 8223 ft 283 kts 146°
2026-05-07 14:45 63.09558 14.38646 9077 ft 288 kts 133°
2026-05-07 14:45 63.08191 14.41909 9927 ft 291 kts 136°
2026-05-07 14:45 63.05272 14.48307 10809 ft 322 kts 137°
2026-05-07 14:45 63.01878 14.55566 11571 ft 352 kts 137°
2026-05-07 14:46 62.98348 14.63199 13051 ft 358 kts 137°
2026-05-07 14:46 62.94770 14.70975 14392 ft 365 kts 137°
2026-05-07 14:46 62.91103 14.78921 15524 ft 375 kts 137°
2026-05-07 14:46 62.87312 14.87059 16599 ft 385 kts 137°
2026-05-07 14:47 62.83403 14.95408 17681 ft 396 kts 138°
2026-05-07 14:47 62.79415 15.03915 18709 ft 407 kts 138°
2026-05-07 14:47 62.75354 15.12539 19707 ft 416 kts 140°
2026-05-07 14:47 62.70513 15.19556 20704 ft 418 kts 161°
2026-05-07 14:48 62.64980 15.23570 21681 ft 423 kts 168°
2026-05-07 14:48 62.59294 15.27400 22605 ft 431 kts 168°
2026-05-07 14:48 62.53517 15.31330 23472 ft 439 kts 169°
2026-05-07 14:48 62.47643 15.35315 24213 ft 446 kts 169°
2026-05-07 14:49 62.41673 15.39339 24939 ft 452 kts 169°
2026-05-07 14:49 62.35637 15.43388 25646 ft 457 kts 169°
2026-05-07 14:49 62.29527 15.47453 26327 ft 462 kts 169°
2026-05-07 14:49 62.23335 15.51564 27003 ft 468 kts 169°
2026-05-07 14:50 62.17086 15.55700 27661 ft 473 kts 170°
2026-05-07 14:50 62.12046 15.59019 28184 ft 477 kts 170°
2026-05-07 14:50 62.08864 15.61111 28491 ft 480 kts 170°
2026-05-07 14:50 62.05666 15.63208 28809 ft 482 kts 170°
2026-05-07 14:51 62.02465 15.65301 29263 ft 481 kts 170°
2026-05-07 14:51 61.99266 15.67386 29709 ft 481 kts 170°
2026-05-07 14:51 61.96065 15.69466 30173 ft 480 kts 171°
2026-05-07 14:51 61.92912 15.71514 30536 ft 480 kts 171°
2026-05-07 14:52 61.89720 15.73585 30924 ft 479 kts 171°
2026-05-07 14:52 61.86530 15.75653 31058 ft 479 kts 170°
2026-05-07 14:52 61.80108 15.79791 31081 ft 481 kts 171°
2026-05-07 14:53 61.73731 15.83894 31081 ft 481 kts 171°
2026-05-07 14:53 61.67319 15.87996 31094 ft 482 kts 171°
2026-05-07 14:54 61.60895 15.92079 31079 ft 482 kts 171°
2026-05-07 14:54 61.54466 15.96145 31077 ft 481 kts 171°
2026-05-07 14:55 61.48051 16.00186 31069 ft 481 kts 171°
2026-05-07 14:55 61.41677 16.04183 31063 ft 481 kts 171°
2026-05-07 14:56 61.35264 16.08194 31058 ft 481 kts 171°
2026-05-07 14:56 61.28851 16.12195 31061 ft 481 kts 171°
2026-05-07 14:57 61.22436 16.16175 31061 ft 481 kts 171°
2026-05-07 14:57 61.16014 16.20157 31060 ft 481 kts 171°
2026-05-07 14:58 61.09606 16.24100 31058 ft 480 kts 171°
2026-05-07 14:58 61.03194 16.28026 31074 ft 480 kts 171°
2026-05-07 14:59 60.99987 16.29982 30873 ft 480 kts 171°
2026-05-07 14:59 60.96782 16.31933 30621 ft 480 kts 171°
2026-05-07 14:59 60.93567 16.33879 30364 ft 481 kts 171°
2026-05-07 14:59 60.90361 16.35813 30106 ft 481 kts 171°
2026-05-07 15:00 60.87157 16.37751 29281 ft 480 kts 171°
2026-05-07 15:00 60.83957 16.39689 28454 ft 478 kts 171°
2026-05-07 15:00 60.80786 16.41611 27830 ft 472 kts 171°
2026-05-07 15:00 60.77648 16.43507 27219 ft 467 kts 171°
2026-05-07 15:01 60.74562 16.45368 26840 ft 456 kts 171°
2026-05-07 15:01 60.71566 16.47176 26695 ft 442 kts 171°
2026-05-07 15:01 60.68700 16.48902 26558 ft 428 kts 172°
2026-05-07 15:01 60.65843 16.50620 26414 ft 417 kts 172°
2026-05-07 15:02 60.63097 16.52264 26284 ft 407 kts 172°
2026-05-07 15:02 60.60410 16.53867 26151 ft 397 kts 172°
2026-05-07 15:02 60.57808 16.55409 25929 ft 390 kts 172°
2026-05-07 15:02 60.55208 16.56937 25594 ft 387 kts 172°
2026-05-07 15:03 60.52628 16.58445 25240 ft 383 kts 172°
2026-05-07 15:03 60.50032 16.59954 24433 ft 394 kts 172°
2026-05-07 15:03 60.47356 16.61502 24130 ft 410 kts 172°
2026-05-07 15:03 60.44560 16.63113 23888 ft 422 kts 172°
2026-05-07 15:04 60.41725 16.64767 23519 ft 425 kts 171°
2026-05-07 15:04 60.38888 16.66445 22864 ft 423 kts 171°
2026-05-07 15:04 60.36108 16.68099 22321 ft 420 kts 170°
2026-05-07 15:04 60.33353 16.70136 21756 ft 426 kts 158°
2026-05-07 15:05 60.30949 16.73723 21216 ft 435 kts 138°
2026-05-07 15:05 60.29072 16.78551 20695 ft 437 kts 128°
2026-05-07 15:05 60.27348 16.83588 20166 ft 435 kts 127°
2026-05-07 15:05 60.25637 16.88611 19669 ft 432 kts 127°
2026-05-07 15:06 60.23961 16.93529 19174 ft 430 kts 127°
2026-05-07 15:06 60.22273 16.98469 18680 ft 427 kts 127°
2026-05-07 15:06 60.20591 17.03384 18027 ft 421 kts 128°
2026-05-07 15:06 60.18954 17.08160 17267 ft 408 kts 127°
2026-05-07 15:07 60.17360 17.12788 16468 ft 397 kts 127°
2026-05-07 15:07 60.15798 17.17287 15684 ft 388 kts 127°
2026-05-07 15:07 60.14259 17.21687 14799 ft 382 kts 127°
2026-05-07 15:07 60.12727 17.26022 13931 ft 377 kts 127°
2026-05-07 15:08 60.11209 17.30271 12971 ft 372 kts 127°
2026-05-07 15:08 60.09722 17.34390 12041 ft 366 kts 128°
2026-05-07 15:08 60.08234 17.38466 11342 ft 354 kts 128°
2026-05-07 15:08 60.06830 17.42296 11147 ft 330 kts 128°
2026-05-07 15:09 60.05520 17.45870 11072 ft 304 kts 128°
2026-05-07 15:09 60.04305 17.49195 11082 ft 289 kts 128°
2026-05-07 15:09 60.03138 17.52394 11091 ft 282 kts 128°
2026-05-07 15:09 60.01980 17.55572 11088 ft 282 kts 128°
2026-05-07 15:10 60.00877 17.58596 11086 ft 281 kts 128°
2026-05-07 15:10 60.00314 17.60140 11145 ft 282 kts 128°
2026-05-07 15:11 59.99162 17.63304 11085 ft 281 kts 128°
2026-05-07 15:11 59.98664 17.64670 11080 ft 281 kts 128°
2026-05-07 15:12 59.97598 17.67597 11040 ft 276 kts 128°
2026-05-07 15:12 59.96461 17.70721 11080 ft 280 kts 128°
2026-05-07 15:12 59.96020 17.71930 11090 ft 281 kts 128°
2026-05-07 15:13 59.95438 17.73530 11070 ft 281 kts 128°
2026-05-07 15:13 59.94287 17.76688 10842 ft 279 kts 128°
2026-05-07 15:13 59.93129 17.79859 10374 ft 285 kts 128°
2026-05-07 15:13 59.92175 17.83313 9891 ft 292 kts 107°
2026-05-07 15:14 59.91771 17.87334 9234 ft 301 kts 98°
2026-05-07 15:14 59.91471 17.91521 8653 ft 308 kts 98°
2026-05-07 15:14 59.91180 17.95759 8220 ft 307 kts 98°
2026-05-07 15:14 59.90893 17.99909 7819 ft 296 kts 98°
2026-05-07 15:15 59.90618 18.03884 7516 ft 281 kts 98°
2026-05-07 15:15 59.90358 18.07618 7386 ft 262 kts 98°
2026-05-07 15:15 59.90114 18.11103 7205 ft 247 kts 99°
2026-05-07 15:15 59.89517 18.14173 6792 ft 239 kts 130°
2026-05-07 15:16 59.88247 18.16134 6323 ft 228 kts 163°
2026-05-07 15:16 59.86710 18.16403 5700 ft 221 kts 197°
2026-05-07 15:16 59.85411 18.14963 5017 ft 212 kts 231°
2026-05-07 15:16 59.84744 18.12423 4344 ft 206 kts 254°
2026-05-07 15:17 59.84395 18.09740 4161 ft 183 kts 261°
2026-05-07 15:17 59.84200 18.07183 4248 ft 195 kts 260°
2026-05-07 15:17 59.83678 18.04788 3914 ft 190 kts 233°
2026-05-07 15:17 59.82726 18.03020 3717 ft 187 kts 214°
2026-05-07 15:18 59.81540 18.01979 3500 ft 188 kts 194°
2026-05-07 15:18 59.80257 18.01496 3250 ft 186 kts 192°
2026-05-07 15:18 59.79014 18.01043 3029 ft 177 kts 192°
2026-05-07 15:18 59.77832 18.00610 2779 ft 166 kts 192°
2026-05-07 15:19 59.76698 18.00195 2543 ft 165 kts 192°
2026-05-07 15:19 59.75591 17.99790 2316 ft 163 kts 192°
2026-05-07 15:19 59.74457 17.99375 2081 ft 162 kts 192°
2026-05-07 15:19 59.73378 17.98982 1856 ft 152 kts 192°
2026-05-07 15:20 59.72371 17.98615 1663 ft 143 kts 192°
2026-05-07 15:20 59.71397 17.98259 1461 ft 140 kts 192°
2026-05-07 15:20 59.70441 17.97911 1282 ft 139 kts 192°
2026-05-07 15:20 59.69491 17.97564 1083 ft 139 kts 191°
2026-05-07 15:21 59.68545 17.97220 885 ft 137 kts 191°
2026-05-07 15:21 59.67620 17.96884 698 ft 136 kts 191°
2026-05-07 15:21 59.66694 17.96547 518 ft 135 kts 190°
2026-05-07 15:21 59.65773 17.96212 349 ft 133 kts 191°
2026-05-07 15:22 59.64866 17.95884 186 ft 132 kts 191°
2026-05-07 15:22 59.64061 17.95591 144 ft 95 kts 190°
2026-05-07 15:22 59.63591 17.95422 144 ft 44 kts 190°
2026-05-07 15:22 59.63386 17.95266 141 ft 31 kts 211°
2026-05-07 15:23 59.63257 17.95056 138 ft 16 kts 230°
2026-05-07 15:23 59.63294 17.94916 138 ft 14 kts 357°
2026-05-07 15:23 59.63312 17.94918 138 ft 0 kts
2026-05-07 15:24 59.63350 17.94928 138 ft 15 kts
2026-05-07 15:24 59.63525 17.94989 138 ft 37 kts
2026-05-07 15:25 59.63791 17.95084 138 ft 39 kts 10°
2026-05-07 15:25 59.64061 17.95181 138 ft 40 kts 10°
2026-05-07 15:25 59.64303 17.95270 138 ft 32 kts 10°
2026-05-07 15:25 59.64530 17.95351 138 ft 34 kts 10°
2026-05-07 15:26 59.64763 17.95439 138 ft 31 kts 11°
2026-05-07 15:26 59.64866 17.95477 138 ft 23 kts 10°
2026-05-07 15:26 59.65032 17.95509 138 ft 25 kts 353°
2026-05-07 15:26 59.65272 17.95393 138 ft 28 kts 345°
2026-05-07 15:27 59.65402 17.95325 138 ft 29 kts 345°
2026-05-07 15:27 59.65609 17.95217 138 ft 32 kts 345°
2026-05-07 15:27 59.65746 17.95056 138 ft 22 kts 282°
2026-05-07 15:27 59.65716 17.94742 138 ft 25 kts 256°
2026-05-07 15:28 59.65671 17.94399 138 ft 27 kts 256°
2026-05-07 15:28 59.65623 17.94026 138 ft 29 kts 256°
2026-05-07 15:28 59.65572 17.93637 138 ft 30 kts 256°
2026-05-07 15:28 59.65526 17.93281 138 ft 25 kts 256°
2026-05-07 15:29 59.65494 17.93026 138 ft 17 kts 256°
2026-05-07 15:29 59.65453 17.92794 138 ft 19 kts 244°
2026-05-07 15:29 59.65385 17.92678 138 ft 4 kts 168°
2026-05-07 15:29 59.65350 17.92708 138 ft 6 kts 154°
2026-05-07 15:30 59.65337 17.92721 138 ft 2 kts 153°
2026-05-07 15:30 59.65337 17.92737 138 ft 2 kts 85°
2026-05-07 15:30 59.65339 17.92778 138 ft 4 kts 89°
2026-05-07 15:30 59.65335 17.92856 138 ft 7 kts 97°
2026-05-07 15:31 59.65333 17.92886 138 ft 3 kts 99°
2026-05-07 15:31 59.65331 17.92900 138 ft 0 kts 99°